Location: Blue Creek
(32.7362°N, 85.7880°W)
Time: 04:15:36
(UTC+00:00)

Daily predictions for brighter satellites

Satellite Brightness Start Highest point End
(mag) Time Altitude Azimuth Time Altitude Azimuth Time Altitude Azimuth
Delta 128 4.5 00:00:04 10° W 00:05:10 47° S 00:09:39 10° ESE
MOS 1 Rocket 4.1 00:02:30 10° NE 00:05:59 24° E 00:09:25 10° SSE
Cosmos 1378 4.3 00:03:11 10° NNW 00:06:46 49° W 00:10:21 10° S
SL-16 R/B 4.0 00:02:37 10° NW 00:07:46 37° WSW 00:12:54 10° S
SL-24 R/B 4.1 00:04:32 10° SSE 00:08:48 83° ENE 00:13:20 10° N
BREEZE-M DEB (TANK) 2.5 00:07:37 10° SSW 00:10:00 65° SE 00:14:49 10° NE
Cosmos 1782 Rocket 3.5 00:06:28 10° S 00:10:50 74° E 00:15:15 10° N
Cosmos 1844 Rocket 3.5 00:07:13 10° SSE 00:11:46 27° ESE 00:16:20 10° NE
Meteor 2-9 Rocket 4.3 00:07:53 10° S 00:13:45 87° E 00:19:35 10° N
Tsikada Rocket 4.2 00:10:33 10° N 00:16:42 79° W 00:22:53 10° S
ISS -1.4 00:14:12 10° W 00:16:55 23° NW 00:19:40 10° NNE
CZ-2D R/B 3.2 00:13:29 10° SSE 00:17:21 82° ENE 00:21:15 10° N
Cosmos 807 4.2 00:17:40 10° S 00:20:37 88° E 00:24:02 10° N
Cosmos 1937 Rocket 4.3 00:16:22 10° SSW 00:21:32 57° WNW 00:26:41 10° N
Cosmos 2084 Rocket 3.8 00:18:33 10° NNW 00:22:55 51° ENE 00:27:20 10° SE
USA 234 3.9 00:21:29 10° ENE 00:27:13 32° SE 00:32:57 10° S
Cosmos 1125 Rocket 4.4 00:23:48 10° SSE 00:28:06 26° E 00:32:25 10° NE
Cosmos 1939 Rocket 3.9 00:24:26 10° S 00:28:24 51° W 00:32:27 10° NNW
CZ-2C R/B 1.2 00:26:30 10° W 00:30:09 58° N 00:32:43 16° ENE
Cosmos 2112 Rocket 4.2 00:25:15 10° NNW 00:30:27 77° WSW 00:35:41 10° S
Cosmos 1943 3.2 00:26:07 10° NNW 00:31:46 68° ENE 00:37:23 10° SSE
Cosmos 1680 Rocket 4.1 00:28:24 10° NNW 00:33:32 60° WSW 00:38:41 10° S
Cosmos 1891 Rocket 4.5 00:27:53 10° SSE 00:33:53 57° E 00:39:50 10° NNE
CSL-04 Debris 4.2 00:29:40 10° SSE 00:34:57 59° ENE 00:40:14 10° N
Exosat Rocket 4.4 00:30:28 10° SSE 00:35:57 31° ESE 00:40:31 10° NE
Iridium 4 Rocket 4.2 00:31:38 10° SSW 00:36:19 55° W 00:41:29 10° N
NOSS 3-4 (A) 4.3 00:32:55 10° SSE 00:37:20 22° ESE 00:41:50 10° ENE
NOSS 3-4 (C) 4.4 00:33:05 10° SSE 00:37:28 22° ESE 00:41:55 10° ENE
Cosmos 1975 Rocket 2.9 00:37:05 10° N 00:41:25 81° E 00:45:42 10° S
CSL-04 Rocket 3.6 00:36:24 10° SSE 00:41:43 66° ENE 00:47:08 10° N
Cosmos 1174 4.4 00:41:31 10° SSW 00:45:58 83° WNW 00:51:41 10° NNE
Shenzhou-11 Module 2.9 00:45:48 10° SSW 00:46:55 21° S 00:46:55 21° S
Cosmos 1603 4.1 00:48:02 10° NNW 00:53:37 64° WSW 00:59:08 10° S
HJ-1C 3.2 00:52:46 10° SSE 00:56:02 88° ENE 00:59:19 10° N
H-2A R/B 1.8 00:51:44 10° SSE 00:56:38 76° ENE 01:01:40 10° N
ATLAS 2AS CENTAUR R/B 3.4 00:52:27 10° S 00:59:28 38° ESE 01:06:38 10° NE
Meteor 1-12 Rocket 4.4 00:56:14 10° S 01:02:11 82° W 01:08:02 10° N
Nadezhda 4 Rocket 4.2 00:58:54 10° N 01:04:43 44° E 01:07:55 25° SE
Cosmos 2034 Rocket 3.9 00:58:49 10° S 01:05:07 69° E 01:11:26 10° NNE
CZ-4 R/B 3.8 01:07:42 10° SSW 01:11:12 25° W 01:14:43 10° NW
CENTAUR R/B 4.2 01:04:44 10° N 01:11:38 28° NE 01:14:15 24° ENE
GOES 2 Rocket 3.4 01:07:45 10° WSW 01:11:44 43° S 01:12:20 40° SSE
Okean 1 Rocket 4.4 01:16:18 25° NE 01:16:18 25° NE 01:18:27 10° NNE
Okean 2 Rocket 3.9 01:11:22 10° SSW 01:15:46 53° W 01:20:10 10° N
Ariane Rocket 3.1 01:16:43 44° ESE 01:17:41 50° ENE 01:22:34 10° N
Cosmos 1300 Rocket 4.5 01:14:13 10° SSW 01:18:28 50° W 01:22:45 10° N
Cosmos 1707 3.2 01:16:52 10° NNW 01:20:38 58° W 01:23:09 19° SSW
ARGOS 3.2 01:20:48 11° S 01:25:57 76° WSW 01:31:20 10° NNW
USA 238 DEB 4.3 01:20:45 10° NNW 01:27:41 44° NE 01:29:18 39° E
DELTA 2 R/B (1) 3.6 01:22:15 10° WNW 01:27:46 70° SSW 01:29:07 50° SE
USA 238 4.3 01:20:52 10° NNW 01:27:47 43° NE 01:29:22 39° E
In-Cosmos 22 4.1 01:25:39 10° N 01:30:58 81° W 01:34:17 24° S
SJ-6B 4.3 01:33:14 25° N 01:33:14 25° N 01:34:55 10° N
SL-08 RB Rocket 3.6 01:30:56 53° S 01:32:01 87° WSW 01:36:37 10° NNW
Cosmos 1634 Rocket 4.2 01:37:16 49° ENE 01:37:16 49° ENE 01:42:31 10° NNE
CZ-2C R/B 2.8 01:31:21 10° N 01:36:56 76° WNW 01:42:32 10° SSW
USA 186 4.2 01:43:19 19° NNW 01:43:19 19° NNW 01:44:22 10° NNW
Cosmos 1536 Rocket 3.8 01:41:09 10° NNW 01:45:33 68° W 01:45:33 68° W
Cosmos 2285 Rocket 4.2 01:40:34 10° SSW 01:46:48 71° WNW 01:53:09 10° NNE
Cosmos 1025 Rocket 4.2 01:46:18 10° NNW 01:50:24 40° W 01:51:49 31° SW
NOSS 3-2 (A) 4.0 01:46:57 10° NNW 01:54:50 73° ENE 01:56:30 59° ESE
Cosmos 1844 Rocket 4.3 01:50:30 10° SW 01:55:26 33° WNW 02:00:26 10° N
Meteor 2-13 Rocket 4.3 01:49:38 10° N 01:55:29 74° NE 01:55:29 74° NE
Cosmos 1092 Rocket 3.9 01:59:24 10° N 02:05:05 76° N 02:05:05 76° N
MetOp-A 4.4 02:07:40 63° WNW 02:07:40 63° WNW 02:12:34 10° NNW
CZ-2C R/B 3.9 02:06:23 10° WNW 02:07:04 15° WNW 02:07:04 15° WNW
Cosmos 2026 Rocket 4.5 02:03:55 10° N 02:08:36 50° NNE 02:08:36 50° NNE
USA 234 3.7 02:04:41 14° NNE 02:10:19 57° NW 02:16:41 10° WSW
Milstar 3 Cent rocket 3.4 02:10:27 10° WSW 02:14:14 33° SW 02:14:14 33° SW
BREEZE-M DEB (TANK) 4.3 02:07:38 10° NW 02:22:38 84° NW 02:22:38 84° NW
NOSS 3-4 (A) 4.3 02:22:10 10° SW 02:27:45 44° NW 02:30:10 30° N
NOSS 3-4 (C) 4.2 02:22:17 10° SW 02:27:51 45° NW 02:29:46 34° N
NOSS 3-2 (C) 4.1 02:22:36 10° NNW 02:29:49 73° NNE 02:29:49 73° NNE
ATLAS 2AS CENTAUR R/B 3.9 02:42:54 10° SW 02:50:20 44° NW 02:57:52 10° NNE
BREEZE-M DEB (TANK) 4.5 02:50:05 10° NW 02:54:11 65° W 02:54:11 65° W
CENTAUR R/B 3.6 02:54:36 10° NW 03:01:27 61° WNW 03:01:27 61° WNW
ATLAS 3B R/B 4.4 03:04:36 10° NNW 03:07:18 24° N 03:07:18 24° N
USA 267 4.4 08:18:32 10° NNE 08:22:28 35° N 08:22:28 35° N
MSX 4.5 08:42:15 10° NNE 08:47:06 52° ENE 08:47:06 52° ENE
Cosmos 1980 Rocket 3.8 08:52:46 26° N 08:52:46 26° N 08:55:19 10° N
BREEZE-M DEB (TANK) 4.0 08:55:56 75° W 08:56:38 83° NW 09:01:14 10° NE
Cosmos 2322 Rocket 3.5 08:55:32 30° SE 08:56:51 34° ESE 09:01:55 10° NE
Cosmos 2263 Rocket 4.0 08:58:10 10° N 09:03:04 30° ENE 09:07:58 10° ESE
SL-16 R/B 2.7 09:05:31 51° SE 09:06:02 53° ESE 09:11:32 10° NNE
SL-4 R/B 3.6 09:08:18 38° NE 09:08:18 38° NE 09:11:16 10° NE
Chandra Rocket (1) 4.4 09:05:32 44° W 09:11:06 64° SSW 09:17:46 10° ESE
Cosmos 1934 Rocket 3.9 09:07:32 10° N 09:12:49 68° NNW 09:12:49 68° NNW
ARIANE 5 R/B 4.5 09:11:18 10° N 09:12:42 18° NNW 09:12:42 18° NNW
Meteor 1-10 Rocket 4.4 09:17:09 53° SSE 09:18:29 73° E 09:24:19 10° NNE
CZ-2C R/B 3.2 09:17:14 10° NNE 09:22:17 52° E 09:24:58 26° SSE
IDEFIX/ARIANE 42P 3.9 09:17:20 10° N 09:20:03 28° NNW 09:20:03 28° NNW
Cosmos 1763 Rocket 3.7 09:21:34 59° SSE 09:22:20 68° ESE 09:27:38 10° NNE
SJ 16-02 2.3 09:27:02 10° N 09:31:17 47° ENE 09:35:31 10° SSE
Meteor 2-6 Rocket 4.1 09:32:38 65° W 09:32:42 66° W 09:38:26 10° N
H-2A R/B 2.4 09:29:17 10° SSE 09:33:33 65° ENE 09:37:56 10° N
PSLV R/B 3.5 09:30:26 10° NNE 09:34:38 73° ESE 09:34:43 73° ESE
Meteor 1-5 Rocket 4.2 09:31:27 10° N 09:36:48 75° E 09:42:15 10° SSE
Cosmos 1238 Rocket 3.9 09:32:44 10° NNW 09:38:58 54° W 09:39:04 53° W
Cosmos 1605 Rocket 3.9 09:34:31 10° N 09:40:57 79° W 09:47:18 10° S
Skynet4D Del rocket 4.0 09:42:00 44° SSW 09:42:36 46° S 09:48:14 10° ESE
Landsat 5 3.5 09:39:33 10° SSE 09:44:04 89° WSW 09:48:36 10° NNW
ERS-2 3.2 09:43:10 10° SSE 09:46:39 45° ENE 09:50:09 10° N
Cosmos 540 Rocket 4.0 09:44:36 13° S 09:49:06 58° ESE 09:54:10 10° NNE
PAYLOAD A 3.7 09:44:45 10° N 09:49:24 69° WNW 09:50:29 50° SW
Cosmos 468 Rocket 4.1 09:50:04 50° W 09:50:47 54° WNW 09:55:58 10° N
X-37B 3.4 09:51:11 11° N 09:52:10 12° NNE 09:53:32 10° NE
ALOS 3.3 09:57:33 10° NNE 10:02:03 47° E 10:06:31 10° S
Cosmos 1484 Rocket 3.9 09:58:17 10° NNE 10:02:08 46° E 10:05:58 10° S
Cosmos 1536 3.3 10:04:58 10° N 10:09:01 64° E 10:13:01 10° SSE
Cosmos 1727 Rocket 4.1 10:03:35 13° SSW 10:09:04 52° W 10:15:15 10° N
Cosmos 1437 Rocket 4.3 10:07:38 10° SSE 10:11:05 36° E 10:14:36 10° NNE
Meteor 1-31 Rocket 3.6 10:09:56 10° NNE 10:13:41 50° E 10:17:25 10° S
DASH 4.0 10:14:08 25° SW 10:15:03 26° SW 10:17:49 10° SSE
Meteor 1-11 Rocket 3.6 10:10:50 10° NNW 10:16:34 75° W 10:22:08 10° S
Cosmos 2100 Rocket 4.2 10:11:14 10° N 10:17:38 79° E 10:23:57 10° S
Meteor 1-27 Rocket 4.0 10:15:06 10° SSW 10:20:50 51° W 10:26:36 10° N
deb Chang Zheng 4 3.4 10:18:16 10° N 10:22:31 69° WNW 10:26:44 10° SSW
SL-8 R/B 4.3 10:18:11 10° NW 10:22:52 54° NE 10:27:32 10° ESE
Cosmos 2360 Rocket 2.1 10:17:58 10° SSW 10:23:37 75° WNW 10:29:18 10° NNE
ADEOS Rocket 3.2 10:18:48 10° S 10:25:53 77° WSW 10:32:15 10° NNW
METEOR-M 4.3 10:22:07 10° NNE 10:27:29 75° ESE 10:32:48 10° S
Cosmos 1898 Rocket 3.4 10:22:45 10° NNW 10:28:00 70° WSW 10:33:14 10° S
Cosmos 1707 Rocket 4.3 10:26:34 22° WSW 10:28:23 30° W 10:32:13 10° NNW
ATLAS 2AS CENTAUR R/B 4.2 10:21:46 10° NNW 10:28:32 39° NE 10:34:47 10° ESE
Cosmos 1666 3.1 10:27:43 10° NNW 10:31:15 38° W 10:34:45 10° SSW
Cosmos 2123 Rocket 4.2 10:26:20 10° S 10:32:31 77° E 10:38:48 10° N
Cosmos 1459 Rocket 3.9 10:26:35 10° N 10:32:39 85° W 10:38:41 10° S
Cosmos 2242 Rocket 4.3 10:30:12 10° S 10:34:28 55° E 10:38:47 10° NNE
SAR-Lupe-4 3.6 10:30:56 10° SSE 10:34:30 84° ENE 10:38:06 10° N
Cosmos 2208 Rocket 4.1 10:31:45 10° SSW 10:36:56 58° WNW 10:42:04 10° N
USA 234 3.2 10:31:31 10° SE 10:38:01 73° SW 10:44:34 10° NW
Cosmos 858 Rocket 4.4 10:33:15 10° NNW 10:38:27 80° WSW 10:43:38 10° SSE
FENGYUN 3A 3.6 10:33:35 10° N 10:38:57 69° WNW 10:44:18 10° SSW
Cosmos 2322 Rocket 3.2 10:37:25 16° WSW 10:40:51 27° WNW 10:45:38 10° N
SAR-Lupe-1 4.0 10:43:07 10° S 10:46:39 67° W 10:50:12 10° NNW
SL-4 R/B 4.1 10:43:55 11° WNW 10:46:49 19° NNW 10:50:13 10° NNE
Cosmos 2263 Rocket 2.9 10:41:58 10° NW 10:46:53 31° WSW 10:51:47 10° SSW
BREEZE-M DEB (TANK) 4.1 10:45:30 10° SW 10:49:07 77° SE 11:01:46 10° NE
SL-16 R/B 3.7 10:47:26 13° W 10:50:26 18° WNW 10:54:15 10° NNW
Cosmos 1733 Rocket 3.2 10:48:10 10° NNW 10:52:20 48° W 10:56:29 10° SSW
Cosmos 1844 Rocket 3.7 10:47:32 10° N 10:53:02 51° ENE 10:58:31 10° SE
Cosmos 1937 Rocket 3.5 10:48:22 10° NNW 10:53:22 55° WSW 10:58:21 10° S
Cosmos 1814 Rocket 4.5 10:49:40 10° SW 10:54:30 39° WNW 10:59:24 10° N
Cosmos 44 Rocket 4.3 10:51:43 10° WSW 10:55:37 27° NW 10:59:43 10° N
Cosmos 841 Rocket 4.3 10:51:13 10° SW 10:55:44 29° WNW 11:00:18 10° N
ADEOS 4.3 10:52:33 10° N 10:57:09 33° WNW 11:01:45 10° SW
CZ-2C R/B 4.1 10:56:58 10° NNW 11:00:01 16° WNW 11:03:03 10° WSW
Gbstr 26 Del rocket 4.3 10:57:17 10° NW 11:05:07 89° SW 11:11:41 10° SE
CZ-4B R/B 2.5 11:02:54 10° SSW 11:05:20 21° W 11:07:50 10° NW
Cosmos 2173 Rocket 4.4 10:59:43 10° NNW 11:05:39 43° W 11:11:36 10° SSW
Cosmos 1975 4.1 11:01:58 10° N 11:05:51 47° E 11:09:41 10° SSE
SJ-12 4.1 11:01:54 10° N 11:05:57 54° WNW 11:09:57 10° SSW
SJ 16-02 3.2 11:08:18 10° W 11:09:20 11° W 11:10:22 10° WSW
Cosmos 1743 2.8 11:07:03 10° NNW 11:10:45 51° W 11:14:25 10° S
